• En España
  • Lista de países
  • Para 7 días
  • Temperatura del agua
  • Mapa Satelital
  • El tiempo en el mapa
  • Informadores
  • user-avatar
    Iniciar sesión

    Tiempo cada hora Perth

    Hoy, 23 Junio, Sábado

    Tiempo Temperatura Precipitaciones Viento Presión Humedad
    00:00 +15°C° 0 mm 2 mps 770 mmHg 79%
    01:00 +14°C° 0 mm 2 mps 770 mmHg 80%
    02:00 +13°C° 0 mm 3 mps 770 mmHg 81%
    03:00 +13°C° 0 mm 3 mps 770 mmHg 81%
    04:00 +12°C° 0 mm 3 mps 770 mmHg 82%
    05:00 +12°C° 0 mm 3 mps 770 mmHg 83%
    06:00 +12°C° 0 mm 3 mps 770 mmHg 83%
    07:00 +12°C° 0 mm 3 mps 770 mmHg 82%
    08:00 +12°C° 0 mm 3 mps 771 mmHg 82%
    09:00 +14°C° 0 mm 3 mps 771 mmHg 74%
    10:00 +17°C° 0 mm 3 mps 771 mmHg 66%
    11:00 +19°C° 0 mm 3 mps 771 mmHg 58%
    12:00 +20°C° 0 mm 3 mps 770 mmHg 54%
    13:00 +21°C° 0 mm 2 mps 770 mmHg 50%
    14:00 +23°C° 0 mm 1 mps 769 mmHg 46%
    15:00 +22°C° 0 mm 1 mps 769 mmHg 50%
    16:00 +21°C° 0 mm 1 mps 770 mmHg 53%
    17:00 +20°C° 0 mm 1 mps 770 mmHg 57%
    18:00 +19°C° 0 mm 1 mps 770 mmHg 60%
    19:00 +17°C° 0 mm 2 mps 770 mmHg 63%
    20:00 +16°C° 0 mm 2 mps 771 mmHg 66%
    21:00 +14°C° 0 mm 3 mps 771 mmHg 67%
    22:00 +14°C° 0 mm 3 mps 771 mmHg 69%
    23:00 +13°C° 0 mm 3 mps 771 mmHg 70%

    Mañana, 24 Junio, Domingo

    Tiempo Temperatura Precipitaciones Viento Presión Humedad
    00:00 +13°C° 0 mm 3 mps 771 mmHg 71%
    01:00 +13°C° 0 mm 3 mps 771 mmHg 72%
    02:00 +13°C° 0 mm 3 mps 770 mmHg 73%
    03:00 +12°C° 0 mm 3 mps 770 mmHg 74%
    04:00 +12°C° 0 mm 3 mps 770 mmHg 74%
    05:00 +12°C° 0 mm 3 mps 770 mmHg 75%
    06:00 +12°C° 0 mm 3 mps 770 mmHg 75%
    07:00 +12°C° 0 mm 3 mps 771 mmHg 75%
    08:00 +12°C° 0 mm 3 mps 771 mmHg 75%
    09:00 +14°C° 0 mm 3 mps 771 mmHg 67%
    10:00 +17°C° 0 mm 3 mps 771 mmHg 58%
    11:00 +20°C° 0 mm 3 mps 771 mmHg 50%
    12:00 +20°C° 0 mm 3 mps 770 mmHg 47%
    13:00 +21°C° 0 mm 3 mps 769 mmHg 44%
    14:00 +22°C° 0 mm 3 mps 769 mmHg 41%
    15:00 +21°C° 0 mm 2 mps 769 mmHg 45%
    16:00 +20°C° 0 mm 2 mps 769 mmHg 49%
    17:00 +20°C° 0 mm 1 mps 769 mmHg 53%
    18:00 +19°C° 0 mm 1 mps 769 mmHg 55%
    19:00 +17°C° 0 mm 2 mps 770 mmHg 58%
    20:00 +16°C° 0 mm 2 mps 770 mmHg 61%
    21:00 +15°C° 0 mm 2 mps 770 mmHg 61%
    22:00 +14°C° 0 mm 3 mps 770 mmHg 62%
    23:00 +13°C° 0 mm 3 mps 770 mmHg 62%

    Pasado mañana, 25 Junio, Lunes

    Tiempo Temperatura Precipitaciones Viento Presión Humedad
    00:00 +13°C° 0 mm 3 mps 770 mmHg 63%
    01:00 +13°C° 0 mm 3 mps 770 mmHg 64%
    02:00 +13°C° 0 mm 4 mps 769 mmHg 65%
    03:00 +12°C° 0 mm 4 mps 769 mmHg 66%
    04:00 +12°C° 0 mm 4 mps 769 mmHg 66%
    05:00 +12°C° 0 mm 4 mps 769 mmHg 66%
    06:00 +12°C° 0 mm 4 mps 769 mmHg 66%
    07:00 +12°C° 0 mm 4 mps 769 mmHg 66%
    08:00 +12°C° 0 mm 5 mps 769 mmHg 66%
    09:00 +14°C° 0 mm 5 mps 769 mmHg 61%
    10:00 +16°C° 0 mm 5 mps 769 mmHg 55%
    11:00 +19°C° 0 mm 5 mps 769 mmHg 50%
    12:00 +19°C° 0 mm 5 mps 769 mmHg 48%
    13:00 +20°C° 0 mm 4 mps 768 mmHg 46%
    14:00 +20°C° 0 mm 4 mps 767 mmHg 45%
    15:00 +19°C° 0 mm 3 mps 767 mmHg 48%
    16:00 +19°C° 0 mm 2 mps 767 mmHg 51%
    17:00 +18°C° 0 mm 2 mps 767 mmHg 55%
    18:00 +17°C° 0 mm 2 mps 767 mmHg 57%
    19:00 +16°C° 0 mm 2 mps 767 mmHg 60%
    20:00 +15°C° 0 mm 2 mps 767 mmHg 62%
    21:00 +14°C° 0 mm 3 mps 767 mmHg 61%
    22:00 +14°C° 0 mm 3 mps 767 mmHg 60%
    23:00 +14°C° 0 mm 3 mps 767 mmHg 60%

    26 Junio, Martes

    Tiempo Temperatura Precipitaciones Viento Presión Humedad
    00:00 +13°C° 0 mm 3 mps 767 mmHg 58%
    01:00 +13°C° 0 mm 3 mps 767 mmHg 57%
    02:00 +13°C° 0 mm 4 mps 766 mmHg 55%
    03:00 +13°C° 0 mm 3 mps 766 mmHg 56%
    04:00 +13°C° 0 mm 3 mps 766 mmHg 56%
    05:00 +12°C° 0 mm 3 mps 766 mmHg 56%
    06:00 +12°C° 0 mm 4 mps 766 mmHg 56%
    07:00 +12°C° 0 mm 4 mps 766 mmHg 56%
    08:00 +12°C° 0 mm 4 mps 766 mmHg 55%
    09:00 +14°C° 0 mm 5 mps 766 mmHg 51%
    10:00 +16°C° 0 mm 5 mps 766 mmHg 47%
    11:00 +17°C° 0 mm 5 mps 766 mmHg 43%
    12:00 +19°C° 0 mm 5 mps 765 mmHg 42%
    13:00 +20°C° 0 mm 5 mps 764 mmHg 41%
    14:00 +20°C° 0 mm 5 mps 764 mmHg 40%
    15:00 +20°C° 0 mm 4 mps 764 mmHg 44%
    16:00 +19°C° 0 mm 3 mps 764 mmHg 47%
    17:00 +18°C° 0 mm 3 mps 763 mmHg 51%
    18:00 +17°C° 0 mm 3 mps 763 mmHg 52%
    19:00 +17°C° 0 mm 4 mps 763 mmHg 52%
    20:00 +17°C° 0 mm 4 mps 763 mmHg 53%
    21:00 +17°C° 0 mm 4 mps 763 mmHg 52%
    22:00 +15°C° 0 mm 4 mps 763 mmHg 52%
    23:00 +15°C° 0 mm 4 mps 762 mmHg 52%

    27 Junio, Miércoles

    Tiempo Temperatura Precipitaciones Viento Presión Humedad
    00:00 +15°C° 0 mm 5 mps 762 mmHg 50%
    01:00 +15°C° 0 mm 5 mps 762 mmHg 49%
    02:00 +16°C° 0 mm 6 mps 761 mmHg 47%
    03:00 +15°C° 0 mm 6 mps 761 mmHg 46%
    04:00 +15°C° 0 mm 6 mps 761 mmHg 46%
    05:00 +15°C° 0 mm 7 mps 760 mmHg 45%
    06:00 +15°C° 0,1 mm 7 mps 760 mmHg 47%
    07:00 +16°C° 0,1 mm 7 mps 760 mmHg 50%
    08:00 +16°C° 0,1 mm 7 mps 760 mmHg 52%
    09:00 +17°C° 0,2 mm 8 mps 760 mmHg 55%
    10:00 +18°C° 0,2 mm 9 mps 760 mmHg 57%
    11:00 +19°C° 0,2 mm 10 mps 759 mmHg 60%
    12:00 +21°C° 1,7 mm 10 mps 759 mmHg 65%
    13:00 +21°C° 1,7 mm 10 mps 758 mmHg 70%
    14:00 +21°C° 1,7 mm 10 mps 757 mmHg 76%
    15:00 +19°C° 3,6 mm 9 mps 758 mmHg 79%
    16:00 +18°C° 3,6 mm 7 mps 758 mmHg 82%
    17:00 +17°C° 3,6 mm 6 mps 758 mmHg 85%
    18:00 +17°C° 0,2 mm 5 mps 759 mmHg 84%
    19:00 +16°C° 0,2 mm 5 mps 760 mmHg 84%
    20:00 +16°C° 0,2 mm 5 mps 760 mmHg 84%
    21:00 +15°C° 0,1 mm 5 mps 760 mmHg 84%
    22:00 +15°C° 0,1 mm 5 mps 761 mmHg 84%
    23:00 +15°C° 0,1 mm 6 mps 761 mmHg 84%

    28 Junio, Jueves

    Tiempo Temperatura Precipitaciones Viento Presión Humedad
    00:00 +14°C° 0 mm 5 mps 761 mmHg 82%
    01:00 +13°C° 0 mm 5 mps 762 mmHg 81%
    02:00 +12°C° 0 mm 5 mps 762 mmHg 80%
    03:00 +12°C° 0,1 mm 5 mps 763 mmHg 80%
    04:00 +12°C° 0,1 mm 5 mps 763 mmHg 80%
    05:00 +10°C° 0,1 mm 5 mps 764 mmHg 80%
    06:00 +10°C° 0 mm 5 mps 764 mmHg 79%
    07:00 +10°C° 0 mm 5 mps 765 mmHg 77%
    08:00 +9°C° 0 mm 5 mps 765 mmHg 75%
    09:00 +10°C° 0 mm 5 mps 766 mmHg 71%
    10:00 +12°C° 0 mm 5 mps 766 mmHg 66%
    11:00 +13°C° 0 mm 5 mps 766 mmHg 61%
    12:00 +13°C° 0,1 mm 5 mps 766 mmHg 59%
    13:00 +13°C° 0,1 mm 5 mps 766 mmHg 57%
    14:00 +14°C° 0,1 mm 5 mps 765 mmHg 54%
    15:00 +13°C° 0 mm 5 mps 766 mmHg 57%
    16:00 +13°C° 0 mm 5 mps 766 mmHg 59%
    17:00 +12°C° 0 mm 5 mps 767 mmHg 61%
    18:00 +11°C° 0 mm 4 mps 767 mmHg 63%
    19:00 +10°C° 0 mm 4 mps 768 mmHg 65%
    20:00 +8°C° 0 mm 4 mps 768 mmHg 67%
    21:00 +9°C° 0 mm 3 mps 768 mmHg 67%
    22:00 +8°C° 0 mm 3 mps 769 mmHg 68%
    23:00 +8°C° 0 mm 2 mps 769 mmHg 69%
    Mostrar más